Вернуться в каталог

STARLINK-37107

АктивенСвязьSSO
NORAD 68294·PAYLOAD·🇺🇸 United States

Запущен Mar 20, 2026 с Vandenberg Space Force Base

Loading…

Ближайшие Пролёты (ближайшие 24 часа)

TLE

СвежийSource: CelesTrak SupGP

Эпоха: Sep 15, 2026, 03:17 UTC

1 68294C 26057A   26258.13729167  .00003404  00000+0  10565-3 0  2586
2 68294  97.2852  23.6365 0000964  92.5889 258.1072 15.33442364    10

Отслеживайте STARLINK-37107 в реальном времени с AllMySat

Download on the App Store